• In Hungary
  • List of Countries
  • For 7 days
  • Water Temperature
  • Satellite Maps
  • Weather Map
  • News
  • Weather Widgets
  • user-avatar
    Login

    Hourly Weather Stepanakert

    Today, 20 October, Saturday

    Time Temperature Precipitation Wind Pressure Humidity
    00:00 +14°C° 0 mm 1 mps 695 mmHg 73%
    01:00 +14°C° 0 mm 1 mps 695 mmHg 73%
    02:00 +13°C° 0 mm 1 mps 695 mmHg 73%
    03:00 +13°C° 0 mm 1 mps 695 mmHg 73%
    04:00 +13°C° 0 mm 1 mps 695 mmHg 73%
    05:00 +13°C° 0 mm 1 mps 695 mmHg 73%
    06:00 +13°C° 0 mm 1 mps 695 mmHg 73%
    07:00 +14°C° 0 mm 1 mps 695 mmHg 68%
    08:00 +16°C° 0 mm 1 mps 695 mmHg 63%
    09:00 +18°C° 0 mm 2 mps 696 mmHg 59%
    10:00 +19°C° 0 mm 2 mps 695 mmHg 56%
    11:00 +20°C° 0 mm 2 mps 695 mmHg 53%
    12:00 +21°C° 0 mm 2 mps 695 mmHg 50%
    13:00 +21°C° 0 mm 2 mps 695 mmHg 50%
    14:00 +21°C° 0 mm 2 mps 694 mmHg 50%
    15:00 +21°C° 0 mm 2 mps 694 mmHg 50%
    16:00 +20°C° 0 mm 2 mps 694 mmHg 57%
    17:00 +19°C° 0 mm 1 mps 694 mmHg 64%
    18:00 +18°C° 0 mm 1 mps 693 mmHg 71%
    19:00 +18°C° 0 mm 1 mps 693 mmHg 70%
    20:00 +16°C° 0 mm 1 mps 693 mmHg 69%
    21:00 +16°C° 0 mm 1 mps 693 mmHg 69%
    22:00 +16°C° 0 mm 1 mps 693 mmHg 68%
    23:00 +16°C° 0 mm 1 mps 693 mmHg 67%

    Tomorrow, 21 October, Sunday

    Time Temperature Precipitation Wind Pressure Humidity
    00:00 +15°C° 0 mm 1 mps 693 mmHg 67%
    01:00 +15°C° 0 mm 1 mps 693 mmHg 66%
    02:00 +15°C° 0 mm 1 mps 693 mmHg 66%
    03:00 +15°C° 0 mm 1 mps 693 mmHg 66%
    04:00 +14°C° 0 mm 1 mps 693 mmHg 66%
    05:00 +14°C° 0 mm 1 mps 693 mmHg 65%
    06:00 +14°C° 0 mm 1 mps 693 mmHg 65%
    07:00 +16°C° 0 mm 1 mps 693 mmHg 60%
    08:00 +19°C° 0 mm 1 mps 694 mmHg 55%
    09:00 +20°C° 0 mm 1 mps 694 mmHg 50%
    10:00 +21°C° 0 mm 1 mps 694 mmHg 47%
    11:00 +21°C° 0 mm 2 mps 694 mmHg 44%
    12:00 +24°C° 0 mm 2 mps 694 mmHg 41%
    13:00 +23°C° 0 mm 2 mps 694 mmHg 42%
    14:00 +23°C° 0 mm 2 mps 693 mmHg 43%
    15:00 +23°C° 0 mm 2 mps 693 mmHg 44%
    16:00 +21°C° 0 mm 2 mps 693 mmHg 50%
    17:00 +20°C° 0 mm 1 mps 693 mmHg 56%
    18:00 +19°C° 0 mm 1 mps 693 mmHg 62%
    19:00 +19°C° 0 mm 1 mps 693 mmHg 63%
    20:00 +18°C° 0 mm 1 mps 693 mmHg 65%
    21:00 +16°C° 0 mm 0 mps 693 mmHg 66%
    22:00 +16°C° 0 mm 1 mps 693 mmHg 67%
    23:00 +16°C° 0 mm 1 mps 693 mmHg 67%

    Day after tomorrow, 22 October, Monday

    Time Temperature Precipitation Wind Pressure Humidity
    00:00 +16°C° 0 mm 1 mps 693 mmHg 67%
    01:00 +16°C° 0 mm 1 mps 693 mmHg 67%
    02:00 +15°C° 0 mm 1 mps 693 mmHg 67%
    03:00 +15°C° 0 mm 1 mps 693 mmHg 68%
    04:00 +15°C° 0 mm 1 mps 693 mmHg 67%
    05:00 +15°C° 0 mm 1 mps 693 mmHg 67%
    06:00 +15°C° 0 mm 1 mps 693 mmHg 67%
    07:00 +16°C° 0 mm 1 mps 693 mmHg 61%
    08:00 +19°C° 0 mm 1 mps 694 mmHg 56%
    09:00 +21°C° 0 mm 1 mps 694 mmHg 51%
    10:00 +21°C° 0 mm 2 mps 694 mmHg 48%
    11:00 +23°C° 0 mm 2 mps 694 mmHg 45%
    12:00 +24°C° 0 mm 2 mps 694 mmHg 41%
    13:00 +24°C° 0 mm 2 mps 694 mmHg 41%
    14:00 +24°C° 0 mm 2 mps 694 mmHg 41%
    15:00 +24°C° 0 mm 2 mps 693 mmHg 41%
    16:00 +21°C° 0 mm 2 mps 693 mmHg 47%
    17:00 +20°C° 0 mm 1 mps 693 mmHg 53%
    18:00 +17°C° 0 mm 0 mps 693 mmHg 59%
    19:00 +18°C° 0 mm 1 mps 693 mmHg 60%
    20:00 +18°C° 0 mm 1 mps 694 mmHg 62%
    21:00 +18°C° 0 mm 1 mps 694 mmHg 63%
    22:00 +18°C° 0 mm 1 mps 694 mmHg 63%
    23:00 +16°C° 0 mm 1 mps 694 mmHg 63%

    23 October, Tuesday

    Time Temperature Precipitation Wind Pressure Humidity
    00:00 +16°C° 0 mm 1 mps 694 mmHg 63%
    01:00 +16°C° 0 mm 1 mps 694 mmHg 64%
    02:00 +15°C° 0 mm 1 mps 694 mmHg 64%
    03:00 +15°C° 0 mm 1 mps 694 mmHg 64%
    04:00 +15°C° 0 mm 1 mps 694 mmHg 64%
    05:00 +15°C° 0 mm 1 mps 694 mmHg 65%
    06:00 +14°C° 0 mm 1 mps 694 mmHg 65%
    07:00 +16°C° 0 mm 1 mps 695 mmHg 60%
    08:00 +19°C° 0 mm 1 mps 695 mmHg 54%
    09:00 +20°C° 0 mm 1 mps 695 mmHg 49%
    10:00 +20°C° 0 mm 2 mps 695 mmHg 46%
    11:00 +21°C° 0 mm 2 mps 695 mmHg 44%
    12:00 +23°C° 0 mm 2 mps 695 mmHg 41%
    13:00 +23°C° 0 mm 2 mps 694 mmHg 41%
    14:00 +23°C° 0 mm 2 mps 694 mmHg 41%
    15:00 +23°C° 0 mm 2 mps 694 mmHg 41%
    16:00 +21°C° 0 mm 2 mps 693 mmHg 47%
    17:00 +20°C° 0 mm 1 mps 693 mmHg 53%
    18:00 +16°C° 0 mm 0 mps 693 mmHg 59%
    19:00 +18°C° 0 mm 1 mps 693 mmHg 60%
    20:00 +18°C° 0 mm 1 mps 693 mmHg 60%
    21:00 +18°C° 0 mm 1 mps 694 mmHg 60%
    22:00 +16°C° 0 mm 1 mps 693 mmHg 60%
    23:00 +16°C° 0 mm 1 mps 693 mmHg 59%

    24 October, Wednesday

    Time Temperature Precipitation Wind Pressure Humidity
    00:00 +16°C° 0 mm 2 mps 693 mmHg 58%
    01:00 +16°C° 0 mm 2 mps 693 mmHg 58%
    02:00 +15°C° 0 mm 2 mps 693 mmHg 57%
    03:00 +15°C° 0 mm 2 mps 693 mmHg 57%
    04:00 +15°C° 0 mm 2 mps 693 mmHg 56%
    05:00 +15°C° 0 mm 2 mps 693 mmHg 56%
    06:00 +15°C° 0 mm 2 mps 693 mmHg 56%
    07:00 +16°C° 0 mm 1 mps 693 mmHg 50%
    08:00 +19°C° 0 mm 1 mps 693 mmHg 45%
    09:00 +21°C° 0 mm 1 mps 694 mmHg 39%
    10:00 +21°C° 0 mm 2 mps 693 mmHg 37%
    11:00 +23°C° 0 mm 2 mps 693 mmHg 34%
    12:00 +24°C° 0 mm 3 mps 692 mmHg 32%
    13:00 +24°C° 0 mm 3 mps 692 mmHg 32%
    14:00 +24°C° 0 mm 2 mps 691 mmHg 32%
    15:00 +24°C° 0 mm 2 mps 691 mmHg 32%
    16:00 +23°C° 0 mm 2 mps 690 mmHg 36%
    17:00 +21°C° 0 mm 1 mps 690 mmHg 41%
    18:00 +19°C° 0 mm 1 mps 690 mmHg 46%
    19:00 +19°C° 0 mm 1 mps 690 mmHg 46%
    20:00 +19°C° 0 mm 1 mps 689 mmHg 47%
    21:00 +18°C° 0 mm 1 mps 689 mmHg 47%
    22:00 +18°C° 0 mm 1 mps 689 mmHg 48%
    23:00 +18°C° 0 mm 1 mps 688 mmHg 48%

    25 October, Thursday

    Time Temperature Precipitation Wind Pressure Humidity
    00:00 +18°C° 0 mm 1 mps 688 mmHg 49%
    01:00 +16°C° 0 mm 1 mps 687 mmHg 50%
    02:00 +16°C° 0 mm 1 mps 687 mmHg 51%
    03:00 +16°C° 0 mm 1 mps 686 mmHg 53%
    04:00 +15°C° 0 mm 1 mps 686 mmHg 53%
    05:00 +15°C° 0 mm 1 mps 686 mmHg 53%
    06:00 +15°C° 0 mm 1 mps 686 mmHg 52%
    07:00 +17°C° 0 mm 2 mps 686 mmHg 48%
    08:00 +18°C° 0 mm 2 mps 686 mmHg 44%
    09:00 +20°C° 0 mm 2 mps 686 mmHg 40%
    10:00 +21°C° 0 mm 3 mps 686 mmHg 38%
    11:00 +22°C° 0 mm 3 mps 685 mmHg 37%
    12:00 +23°C° 0 mm 4 mps 685 mmHg 35%
    13:00 +23°C° 0 mm 4 mps 685 mmHg 34%
    14:00 +23°C° 0 mm 4 mps 684 mmHg 33%
    15:00 +23°C° 0 mm 4 mps 684 mmHg 32%
    16:00 +21°C° 0 mm 3 mps 684 mmHg 38%
    17:00 +19°C° 0 mm 2 mps 684 mmHg 43%
    18:00 +19°C° 0 mm 1 mps 684 mmHg 48%
    19:00 +18°C° 0 mm 1 mps 684 mmHg 49%
    20:00 +18°C° 0 mm 1 mps 684 mmHg 50%
    21:00 +17°C° 0 mm 2 mps 684 mmHg 50%
    22:00 +16°C° 0 mm 2 mps 684 mmHg 50%
    23:00 +16°C° 0 mm 2 mps 684 mmHg 50%
    Show more